Location: York
(31.8935°S, 116.7682°E)
Time: 04:31:44
(UTC+08:00)

NOAA 19 - Visible Passes

Search period start: 24 July 2021 00:00
Search period end: 03 August 2021 00:00
Orbit: 840 x 861 km, 99.2° (Epoch: 23 July)

Date Brightness Start Highest point End Pass type
(mag) Time Alt. Az. Time Alt. Az. Time Alt. Az.
24 Jul 6.2 06:16:47 10° NNE 06:22:08 50° ESE 06:27:33 10° S visible
24 Jul 5.9 18:46:22 21° SE 18:49:06 32° E 18:53:57 10° NNE visible
24 Jul 7.0 20:28:22 25° SW 20:29:33 27° WSW 20:34:05 10° NW visible
25 Jul 6.7 06:05:19 10° NE 06:10:26 39° ESE 06:15:36 10° S visible
25 Jul 6.2 18:34:20 16° SE 18:37:15 25° E 18:41:39 10° NNE visible
25 Jul 6.6 20:16:19 29° SW 20:17:52 35° WSW 20:22:47 10° NW visible
26 Jul 7.1 05:53:58 10° NE 05:58:45 30° ESE 06:03:34 10° S visible
26 Jul 6.5 18:22:17 12° ESE 18:25:23 19° E 18:29:08 10° NE visible
26 Jul 6.1 20:04:17 33° SSW 20:06:10 45° WSW 20:11:21 10° NW visible
27 Jul 7.5 05:42:46 10° ENE 05:47:04 24° ESE 05:51:26 10° SSE visible
27 Jul 6.8 18:10:44 10° ESE 18:13:30 14° E 18:16:14 10° NE visible
27 Jul 5.7 19:52:13 35° S 19:54:27 59° WSW 19:59:48 10° NNW visible
28 Jul 7.8 05:31:45 10° ENE 05:35:26 18° ESE 05:39:08 10° SSE visible
28 Jul 5.2 19:40:10 34° S 19:42:43 77° WSW 19:48:10 10° NNW visible
29 Jul 8.0 05:21:02 10° E 05:23:49 14° ESE 05:26:36 10° SSE visible
29 Jul 5.1 19:28:06 30° SSE 19:30:56 82° ENE 19:36:25 10° NNW visible
29 Jul 8.1 21:10:05 10° SW 21:10:47 11° WSW 21:12:00 10° WSW visible
30 Jul 8.2 05:11:12 10° ESE 05:12:13 10° ESE 05:13:14 10° SE visible
30 Jul 5.1 19:16:01 26° SSE 19:19:09 63° ENE 19:24:34 10° N visible
30 Jul 7.8 20:58:00 14° SW 20:59:10 14° WSW 21:02:00 10° W visible
31 Jul 5.6 06:34:44 10° NNE 06:40:16 74° ESE 06:45:53 10° S visible
31 Jul 5.4 19:03:55 21° SE 19:07:21 47° E 19:12:36 10° N visible
31 Jul 7.5 20:45:55 17° SW 20:47:33 19° WSW 20:51:14 10° WNW visible
01 Aug 6.0 06:23:07 10° NNE 06:28:32 57° ESE 06:34:01 10° S visible
01 Aug 5.7 18:51:50 17° SE 18:55:32 36° E 19:00:30 10° NNE visible
01 Aug 7.2 20:33:49 19° SW 20:35:54 24° WSW 20:40:11 10° WNW visible
02 Aug 6.5 06:11:35 10° NE 06:16:49 43° ESE 06:22:06 10° S visible
02 Aug 6.1 18:39:42 13° SE 18:43:41 27° E 18:48:16 10° NNE visible
02 Aug 6.8 20:21:41 21° SSW 20:24:14 31° WSW 20:28:57 10° NW visible
